Vertical_Velocity
0 -1 0 -1 -1 -1 -1 -1 -1 -3 -4 -1 2 -1 -2 2 -4 -5 4 -3 -3 -2 -1 -3 0 -1 -2 -0 -3 -2 -1 0 -0
-0 -1 0 -0 -1 0 -1 -2 1 -1 -3 -4 -3 3 -1 -4 -1 -2 -1 1 -0 0 -2 3 -1 0 -1 -0 -1 -2 -2 -2 -1
-1 -1 1 -2 0 -1 -1 -2 1 2 1 -0 -2 -6 -1 -2 -1 -6 -2 -2 -1 -2 -0 0 -0 0 0 -1 -2 0 -1 -1 0
1 -0 -0 0 -1 1 -2 -1 0 2 1 0 1 1 -1 -3 1 -3 -2 -4 -5 -1 -1 -2 0 0 -1 -1 -2 -0 -1 -1 -1
3 3 0 -1 -1 1 -2 -3 -6 -1 2 2 2 1 1 3 -2 1 -2 -3 -6 -4 -2 1 -0 -0 0 -1 1 -1 0 -1 -0
-1 -1 3 1 -1 -1 2 0 1 -5 -4 0 1 1 1 -0 -1 2 -1 -0 -1 -3 -5 -3 -3 -1 0 0 -1 -1 -1 2 -0
-0 0 -1 2 2 0 -1 -0 0 -0 0 -2 -0 0 -1 -0 -1 -1 1 1 2 3 2 -1 -2 -1 -2 -2 -2 -1 -0 1 -1
0 -0 -1 -1 -0 2 -0 -2 -3 0 -1 -1 -3 1 3 1 -3 -1 -2 -1 -0 -0 -2 3 2 -0 -1 -2 -2 -3 -2 -3 1
-3 -1 0 0 -1 -2 1 2 2 -1 -1 0 2 0 -3 1 -1 0 -0 -1 -2 -1 1 -2 -2 0 1 -0 0 -1 -0 -0 -2
5 -2 -1 -0 2 -0 -2 -1 1 2 -1 -1 -1 -1 2 -1 -3 1 -3 -1 -1 -2 -2 -2 -1 -3 -1 -0 1 -2 -1 -1 -2
6 6 -0 -1 -1 2 1 -1 -0 1 2 0 -3 -2 1 -0 -2 -1 -1 1 1 -1 -1 -1 -0 1 -1 -0 -1 0 1 0 0
1 7 2 -0 1 1 1 1 2 -0 2 1 1 -1 -1 2 -1 1 -1 -1 -1 -1 -1 -1 -2 -1 -0 1 1 1 -0 1 1
0 -2 3 2 4 2 6 2 1 -1 -1 -1 -0 -2 2 -0 -2 -2 1 -2 -1 -1 1 0 -0 1 -2 -1 -1 0 2 -0 2
7 -1 -1 7 5 3 5 -0 -1 6 -0 -5 -2 0 -1 1 1 -1 -4 -1 0 0 1 -0 -0 -1 0 -1 -0 -0 0 -0 1
-0 3 -2 2 2 6 4 8 8 -3 8 5 -2 2 -2 -1 1 -1 -2 -2 1 -0 1 0 -2 -1 -2 -2 -1 1 2 -0 -2
-1 -1 1 2 1 -4 -1 -1 13 4 1 17 7 5 14 4 -3 1 -2 -4 -5 -2 -1 1 -2 -1 -1 -2 -2 -3 -2 -0 1
4 4 -4 1 3 1 2 2 -2 -1 2 6 14 6 11 -3 -0 1 -1 -3 -3 -4 -3 -3 -1 1 3 1 -2 -0 1 -2 -2
1 10 7 4 4 -2 -4 2 2 1 -1 6 10 1 -3 -6 7 -4 2 -0 -2 -1 -0 -2 -3 -1 -1 2 4 -3 -1 2 -1
-2 -4 6 5 4 4 -2 1 0 11 -0 10 9 6 -2 3 -1 -6 -11 -0 1 -2 -4 1 0 -0 0 -5 -4 1 -3 1 -2
3 -1 2 1 7 4 6 2 3 2 11 -1 3 6 8 6 -8 3 -7 5 -6 -1 -1 2 -1 0 0 -2 -6 4 -0 -1 -2
Height
1558 1559 1559 1560 1560 1561 1561 1562 1562 1563 1563 1563 1564 1564 1564 1565 1566 1566 1565 1564 1564 1564 1563 1563 1562 1562 1562 1561 1561 1560 1560 1559 1559
1558 1558 1559 1559 1560 1561 1562 1562 1563 1563 1563 1563 1564 1564 1565 1566 1566 1566 1566 1565 1565 1565 1564 1564 1563 1563 1563 1563 1562 1561 1561 1561 1560
1557 1557 1558 1558 1559 1560 1561 1562 1563 1563 1563 1563 1563 1564 1564 1565 1567 1567 1566 1566 1565 1565 1565 1564 1564 1564 1564 1564 1563 1563 1562 1562 1562
1555 1556 1557 1557 1558 1559 1560 1561 1562 1563 1563 1563 1564 1564 1564 1565 1566 1567 1566 1567 1566 1565 1565 1565 1565 1565 1565 1565 1564 1564 1564 1563 1563
1554 1554 1555 1555 1556 1557 1558 1560 1561 1562 1562 1563 1563 1564 1564 1565 1565 1566 1565 1566 1565 1565 1565 1566 1565 1565 1565 1565 1565 1565 1565 1564 1564
1552 1553 1554 1554 1554 1555 1556 1557 1558 1559 1561 1562 1562 1563 1563 1564 1564 1565 1565 1565 1564 1564 1565 1565 1566 1566 1566 1566 1566 1566 1566 1565 1564
1550 1551 1552 1552 1552 1553 1554 1555 1556 1557 1558 1559 1560 1561 1562 1562 1562 1564 1564 1564 1564 1564 1564 1565 1565 1566 1566 1566 1566 1566 1565 1565 1564
1546 1547 1548 1549 1550 1551 1551 1552 1553 1554 1555 1557 1558 1559 1560 1560 1560 1562 1563 1564 1563 1563 1563 1564 1564 1565 1565 1565 1565 1565 1565 1564 1564
1542 1543 1544 1546 1546 1548 1549 1549 1550 1552 1553 1554 1556 1557 1558 1559 1559 1560 1560 1561 1561 1562 1562 1563 1563 1564 1564 1564 1564 1564 1564 1563 1563
1538 1539 1540 1542 1543 1544 1545 1546 1548 1548 1549 1551 1553 1554 1555 1556 1556 1557 1558 1559 1559 1559 1560 1561 1562 1562 1563 1563 1563 1562 1562 1562 1561
1534 1534 1535 1537 1538 1540 1541 1542 1544 1545 1547 1546 1548 1550 1552 1553 1553 1555 1555 1556 1556 1556 1558 1559 1559 1560 1560 1561 1561 1561 1561 1560 1559
1528 1529 1530 1531 1533 1535 1536 1538 1539 1541 1543 1544 1544 1546 1549 1550 1550 1551 1551 1552 1553 1553 1554 1555 1556 1557 1558 1558 1559 1559 1559 1558 1558
1523 1523 1524 1526 1527 1529 1531 1532 1533 1535 1538 1540 1541 1542 1544 1545 1547 1547 1548 1549 1549 1550 1551 1552 1553 1554 1555 1555 1556 1556 1556 1556 1555
1517 1517 1519 1521 1521 1522 1524 1525 1527 1529 1532 1534 1536 1538 1539 1540 1542 1542 1543 1544 1545 1546 1547 1548 1549 1550 1551 1552 1553 1553 1553 1553 1552
1507 1509 1511 1514 1515 1517 1518 1519 1521 1522 1526 1527 1529 1531 1533 1535 1536 1537 1538 1539 1540 1542 1543 1544 1544 1545 1547 1548 1549 1550 1550 1550 1549
1496 1498 1501 1504 1506 1508 1511 1512 1514 1516 1519 1522 1522 1524 1527 1528 1530 1531 1533 1533 1535 1536 1538 1539 1540 1541 1542 1543 1544 1546 1546 1546 1546
1485 1487 1489 1493 1495 1498 1502 1504 1507 1509 1512 1514 1516 1516 1520 1521 1523 1525 1526 1527 1529 1530 1531 1532 1534 1535 1537 1538 1539 1541 1541 1542 1542
1474 1478 1480 1483 1485 1487 1491 1495 1498 1501 1504 1507 1506 1509 1509 1515 1516 1518 1520 1521 1522 1524 1525 1526 1528 1529 1530 1532 1534 1535 1536 1537 1537
1464 1466 1471 1473 1476 1478 1480 1485 1489 1494 1494 1498 1500 1502 1504 1505 1509 1511 1512 1514 1515 1517 1518 1520 1521 1523 1524 1526 1527 1530 1531 1532 1532
1454 1457 1460 1462 1466 1468 1472 1476 1479 1483 1488 1488 1491 1495 1497 1500 1498 1502 1503 1506 1508 1510 1511 1512 1514 1517 1519 1520 1520 1522 1524 1526 1527